Lid_Strength_Index
12 12 12 14 14 13 14 15 17 14 14 11 10 10 10 10 9 9 10 10 10 11 12 12 12 11 10 10 10 8 8 8 9 9 8 8 9 8 8 8 9 8 8 8
14 11 11 14 13 12 12 12 12 12 13 8 7 9 10 9 9 10 10 10 11 11 11 12 12 12 10 10 10 8 8 8 9 9 9 9 8 9 8 9 9 8 8 8
17 12 12 16 13 13 13 11 12 14 11 8 9 10 9 9 10 10 10 10 11 11 12 12 12 11 11 10 9 8 8 9 10 9 10 10 9 9 9 9 8 8 8 8
16 14 20 13 10 11 11 10 10 9 8 8 8 7 8 8 10 10 10 10 11 12 12 12 11 10 10 9 9 9 9 9 10 10 10 10 9 8 8 8 8 7 7 8
17 16 14 12 11 12 13 13 9 10 9 8 7 8 9 8 8 10 10 11 11 11 11 12 11 10 9 10 9 9 9 10 10 11 11 10 10 9 8 8 7 6 6 7
15 18 21 13 10 9 10 15 8 7 8 8 7 11 10 8 8 10 10 11 11 11 11 12 11 10 10 10 10 10 9 10 10 11 11 11 9 9 8 8 8 7 7 6
19 17 15 10 8 8 16 14 7 7 7 7 8 7 7 8 9 9 10 10 10 11 11 11 10 10 10 10 10 9 9 9 10 11 11 11 9 8 8 8 8 7 7 7
16 18 20 8 8 12 10 6 6 6 6 6 6 7 8 8 9 10 10 10 10 11 11 10 10 10 10 11 9 9 9 9 10 11 12 11 10 9 9 9 9 8 8 8
14 13 9 7 7 6 5 6 6 6 5 5 5 8 8 9 9 10 10 10 10 11 10 10 10 10 10 10 10 9 10 10 10 11 12 12 11 10 10 9 9 10 9 9
11 9 8 6 5 5 5 5 4 4 4 4 7 8 8 9 9 9 10 10 10 11 10 10 10 10 9 9 9 9 10 10 10 12 12 13 11 11 10 9 9 10 10 10
10 8 7 6 5 5 5 4 5 4 4 6 7 8 8 8 9 9 9 9 10 10 10 10 9 10 9 9 10 10 10 10 11 11 12 13 12 12 12 11 10 10 10 10
12 8 8 7 6 5 5 5 4 5 7 6 7 8 8 8 8 8 9 9 9 9 10 10 9 9 9 8 10 11 11 11 11 11 12 12 13 12 11 12 11 11 10 10
8 6 7 6 5 4 6 6 6 6 6 6 6 7 7 8 8 8 8 9 9 9 9 9 9 9 8 8 10 11 12 11 11 11 11 12 13 13 14 12 11 12 12 11
7 6 6 5 5 4 4 4 4 5 5 5 5 6 7 7 7 8 8 8 9 9 9 9 9 9 8 8 9 11 11 12 11 11 11 11 12 13 13 13 14 13 12 12
6 6 6 5 5 5 5 5 6 5 6 6 6 6 6 7 8 8 7 7 7 7 8 8 9 9 8 8 10 11 12 11 12 11 11 11 11 11 12 13 13 13 13 12
6 6 6 7 7 6 6 6 6 5 5 5 6 6 6 6 6 7 6 6 8 8 8 8 9 8 9 9 10 10 11 13 12 12 11 11 11 11 12 12 12 13 14 14
7 7 8 8 8 8 8 7 7 7 6 6 6 6 6 6 6 7 7 7 7 7 8 8 9 8 8 9 9 10 11 11 13 12 12 12 11 11 12 12 12 12 13 12
7 7 7 7 8 8 8 8 8 8 8 7 8 8 8 8 7 8 7 7 7 8 8 7 8 8 7 8 10 10 11 11 11 12 13 12 12 11 11 11 12 12 12 12
7 7 7 7 7 8 8 8 8 8 8 8 8 9 10 11 10 9 9 9 10 9 8 7 10 7 6 8 10 9 10 11 12 13 13 15 14 12 11 11 12 12 12 12
8 8 7 7 7 7 8 8 8 8 8 8 9 9 9 11 11 10 9 10 10 10 9 8 7 7 6 7 9 8 9 10 12 13 13 13 15 15 14 12 12 11 12 12
8 8 8 8 8 7 7 8 8 8 9 9 8 10 9 8 9 9 9 9 9 9 10 10 10 10 7 8 6 6 6 8 10 12 13 12 12 14 15 14 14 13 12 12
6 7 6 7 7 7 7 7 7 8 8 9 12 12 9 7 8 7 7 8 7 10 8 8 9 11 10 10 7 7 7 8 8 9 10 11 12 12 13 14 14 15 15 14
6 6 5 5 6 6 6 6 6 7 7 7 7 7 7 6 6 7 8 7 7 8 7 7 9 10 11 9 10 9 9 9 9 10 10 11 11 11 12 12 14 14 15 15
8 7 6 5 4 5 6 6 5 5 5 5 5 6 6 7 7 5 6 7 8 8 7 8 8 9 9 7 9 10 10 11 10 10 10 11 11 11 11 11 12 13 14 15
8 7 6 6 6 6 6 7 7 7 6 6 4 5 6 5 6 6 6 6 8 7 7 8 9 9 7 7 8 8 9 10 11 11 10 10 11 11 11 11 12 12 12 13
9 8 7 6 6 6 6 7 9 8 8 7 5 6 7 8 8 7 7 7 7 8 8 8 8 7 7 7 8 8 8 8 9 10 11 10 10 10 11 11 11 11 12 12
8 8 7 7 7 7 7 8 8 8 8 8 9 8 8 8 8 7 8 8 8 8 8 8 7 7 7 7 8 8 8 9 9 9 10 11 11 11 11 11 11 11 11 12